Location: Washington
(38.8950°N, 77.0370°W)
Time: 03:47:21
(UTC-04:00)

IDEFIX/ARIANE 42P - Visible Passes

Search period start: 24 October 2014 00:00
Search period end: 02 November 2014 23:00
Orbit: 786 x 803 km, 98.3° (Epoch: 23 October)

Date Brightness Start Highest point End Pass type
(mag) Time Alt. Az. Time Alt. Az. Time Alt. Az.
24 Oct 4.1 19:23:34 17° ENE 19:23:34 17° ENE 19:26:42 10° NNE visible
24 Oct 3.7 21:04:24 39° NW 21:04:24 39° NW 21:07:47 10° NNW visible
25 Oct 3.2 20:36:06 44° N 20:36:06 44° N 20:39:41 10° N visible
26 Oct 3.4 20:07:48 33° NE 20:07:48 33° NE 20:11:17 10° N visible
26 Oct 5.1 21:48:38 17° NW 21:48:38 17° NW 21:50:18 10° NW visible
27 Oct 3.9 19:39:30 21° NE 19:39:30 21° NE 19:42:31 10° NNE visible
27 Oct 4.4 21:20:20 26° NW 21:20:20 26° NW 21:22:49 10° NNW visible
28 Oct 4.3 19:11:11 13° NE 19:11:11 13° NE 19:12:56 10° NE visible
28 Oct 3.8 20:52:01 33° NNW 20:52:01 33° NNW 20:54:53 10° NNW visible
29 Oct 3.6 20:23:43 33° NNE 20:23:43 33° NNE 20:26:39 10° N visible
29 Oct 5.5 22:04:33 11° NW 22:04:33 11° NW 22:04:47 10° NW visible
30 Oct 3.8 19:55:24 24° NNE 19:55:24 24° NNE 19:58:06 10° N visible
30 Oct 5.0 21:36:14 17° NW 21:36:14 17° NW 21:37:42 10° NW visible
31 Oct 4.2 19:27:05 16° NE 19:27:05 16° NE 19:29:05 10° NNE visible
31 Oct 4.4 21:07:55 24° NNW 21:07:55 24° NNW 21:10:00 10° NNW visible
01 Nov 4.0 20:39:36 27° N 20:39:36 27° N 20:41:55 10° N visible
02 Nov 4.0 19:11:17 24° NNE 19:11:17 24° NNE 19:13:33 10° N visible
02 Nov 5.4 20:52:07 11° NW 20:52:07 11° NW 20:52:24 10° NW visible
